Regional Weather Roundup
Issued by NWS

Home | Current Version | Previous Version | Graphics & Text | Print | Product List | Glossary On
Versions: 1 2 3 4 5 6 7 8 9 10 11 12 13 14 15 16 17 18 19 20 21 22 23 24 25 26 27 28 29 30 31 32 33 34 35 36 37 38 39 40 41 42 43 44 45 46 47 48 49 50
000
ASUS43 KFSD 272002
RWRSD

WEATHER ROUNDUP FOR SOUTH DAKOTA
NATIONAL WEATHER SERVICE SIOUX FALLS SD
300 PM CDT THU APR 27 2017

NOTE: "FAIR" INDICATES FEW OR NO CLOUDS BELOW 12,000 FEET WITH NO
SIGNIFICANT WEATHER AND/OR OBSTRUCTIONS TO VISIBILITY.


SDZ001>005-009-010-012>017-272100-
NORTHWEST AND NORTH CENTRAL SOUTH DAKOTA

CITY           SKY/WX    TMP DP  RH WIND       PRES   REMARKS
BUFFALO          N/A     48  27  44 E12G17    29.59F
FAITH            N/A     42  30  62 E9        29.68F
MOBRIDGE       SUNNY     53  26  35 NE9       29.66F
$$

SDZ012>016-024>037-041>051-057-063-072>074-272100-
SOUTHWEST AND SOUTH CENTRAL SOUTH DAKOTA

CITY           SKY/WX    TMP DP  RH WIND       PRES   REMARKS
RAPID CTY ARPT CLOUDY    47  34  60 E13       29.62F
PIERRE         PTSUNNY   44  29  55 NE5       29.69F
CUSTER         CLOUDY    37  29  72 E13       29.58S
ELLSWORTH AFB    N/A     46  35  66 E10       29.62S
PHILIP         MOSUNNY   46  33  60 E10       29.67F
PINE RIDGE     CLOUDY    50  34  54 SE15G22   29.59F
SPEARFISH      FAIR      43  36  75 E20       29.59S
WINNER         FAIR      49  32  52 VRB5      29.68F
$$

SDZ004>011-016>023-039-040-272100-
NORTHEAST SOUTH DAKOTA

CITY           SKY/WX    TMP DP  RH WIND       PRES   REMARKS
ABERDEEN       SUNNY     44  27  51 N15       29.71F
WATERTOWN      SUNNY     40  26  57 NW16      29.67S
BROOKINGS      PTSUNNY   41  29  62 NW17G24   29.67S
SISSETON         N/A     38  27  64 N16G25    29.69S
$$

SDZ017-020-022-023-036>040-048>070-272100-
SOUTHEAST SOUTH DAKOTA

CITY           SKY/WX    TMP DP  RH WIND       PRES   REMARKS
SIOUX FALLS    MOSUNNY   47  33  58 NW12G21   29.68S
HURON          MOSUNNY   48  30  49 N13G20    29.70F
CHAMBERLAIN    MOSUNNY   49  32  52 N6        29.69F
MITCHELL       SUNNY     47  30  51 N10G18    29.71F
YANKTON        MOSUNNY   46  30  53 NW15      29.69F
$$

ABBREVIATIONS USED IN REMARKS
   TC - TEMPERATURE IN CELSIUS
  WCI - WIND CHILL INDEX
   HX - HEAT INDEX
  VSB - VISIBILITY





USA.gov is the U.S. government's official web portal to all federal, state and local government web resources and services.